Location: Góry Miechowskie
(50.3599°N, 20.1803°E)
Time: 11:50:43
(UTC+00:00)

Vanguard 1 Rocket - Pass Details

Date: 17 September 2024
Orbit: 650 x 4218 km, 34.3° (Epoch: 12 October)

Event Time Altitude Azimuth Distance (km) Brightness Sun altitude
Rises 08:13:17 0° 278° (W) 7,639 11.7 33.3°
Reaches altitude 10° 08:19:17 10° 269° (W) 6,981 11.6 33.9°
Maximum altitude 08:37:46 28° 221° (SW) 5,950 11.9 35.8°
Drops below altitude 10° 08:55:57 10° 172° (S) 6,774 12.9 37.4°
Sets 09:01:48 0° 162° (SSE) 7,376 12.9 37.9°
